This is the latest recevied weather packets stored in our database for station/object K0QED. If no packets are shown the sender has not sent any weather packets the latest 10 day(s).
| Time | Temp. | Humidity | Pressure | Rain* | Wind** | Luminosity | Snow |
|---|---|---|---|---|---|---|---|
| 1788115906 | 25° C | 38% | 1025.7 hPa | 0 mm | - | 294 W/m² | - |
| 1788115605 | 25° C | 39% | 1025.9 hPa | 0 mm | - | 289 W/m² | - |
| 1788115299 | 25° C | 39% | 1025.9 hPa | 0 mm | - | 374 W/m² | - |
| 1788115000 | 25° C | 38% | 1026.1 hPa | 0 mm | - | 579 W/m² | - |
| 1788114696 | 24.44° C | 40% | 1025.9 hPa | 0 mm | - | 368 W/m² | - |
| 1788114396 | 25° C | 40% | 1025.9 hPa | 0 mm | - | 411 W/m² | - |
| 1788114092 | 24.44° C | 41% | 1025.9 hPa | 0 mm | - | 569 W/m² | - |
| 1788113788 | 25° C | 39% | 1025.7 hPa | 0 mm | - | 467 W/m² | - |
| 1788113488 | 25° C | 39% | 1026 hPa | 0 mm | - | 441 W/m² | - |
| 1788113187 | 25° C | 41% | 1025.9 hPa | 0 mm | - | 698 W/m² | - |
| 1788112887 | 24.44° C | 40% | 1026.2 hPa | 0 mm | - | 402 W/m² | - |
| 1788112586 | 25° C | 40% | 1026 hPa | 0 mm | - | 384 W/m² | - |
| 1788112281 | 23.89° C | 41% | 1026.1 hPa | 0 mm | - | 500 W/m² | - |
| 1788111977 | 23.89° C | 44% | 1026.2 hPa | 0 mm | - | 308 W/m² | - |
| 1788111672 | 23.33° C | 41% | 1026.2 hPa | 0 mm | - | 339 W/m² | - |
| 1788111367 | 23.33° C | 42% | 1026.2 hPa | 0 mm | - | 351 W/m² | - |
| 1788111062 | 23.33° C | 41% | 1026.5 hPa | 0 mm | - | 265 W/m² | - |
| 1788110759 | 23.33° C | 43% | 1026.4 hPa | 0 mm | - | 237 W/m² | - |
| 1788110455 | 23.33° C | 42% | 1026.4 hPa | 0 mm | - | 290 W/m² | - |
| 1788110150 | 23.89° C | 41% | 1026.6 hPa | 0 mm | - | 291 W/m² | - |
| 1788109845 | 22.78° C | 43% | 1026.6 hPa | 0 mm | - | 627 W/m² | - |
| 1788109544 | 22.78° C | 43% | 1026.6 hPa | 0 mm | - | 298 W/m² | - |
| 1788109244 | 22.22° C | 48% | 1026.4 hPa | 0 mm | - | 244 W/m² | - |
| 1788108939 | 22.22° C | 48% | 1026.4 hPa | 0 mm | - | 222 W/m² | - |
| 1788108635 | 21.67° C | 49% | 1026.5 hPa | 0 mm | - | 268 W/m² | - |
* Rain latest hour (hover to see other rain measurements)
** Current wind speed in m/s (hover to see current wind gust speed)